Regional Weather Roundup
Issued by NWS

Home | Current Version | Previous Version | Graphics & Text | Print | Product List | Glossary On
Versions: 1 2 3 4 5 6 7 8 9 10 11 12 13 14 15 16 17 18 19 20 21 22 23 24 25 26 27 28 29 30 31 32 33 34 35 36 37 38 39 40 41 42 43 44 45 46 47 48 49 50
000
ASUS45 KBOI 301110
RWRID

IDAHO REGIONAL WEATHER ROUNDUP
NATIONAL WEATHER SERVICE BOISE ID
500 AM MDT THU JUL 30 2015

NOTE: "FAIR" INDICATES FEW OR NO CLOUDS BELOW 12000 FEET
WITH NO SIGNIFICANT WEATHER AND/OR OBSTRUCTIONS TO VISIBILITY

IDZ012-014-301200-
SOUTHWEST IDAHO


CITY           SKY/WX    TMP DP  RH WIND       PRES   REMARKS
BOISE          CLEAR     63  37  38 SE7       30.18R
CALDWELL       CLEAR     54  39  58 CALM      30.18S
$$

IDZ016-017-301200-
SOUTHCENTRAL IDAHO


CITY           SKY/WX    TMP DP  RH WIND       PRES   REMARKS
BURLEY         CLEAR     48  42  80 S3        30.25S
JEROME         CLEAR     56  34  43 E8        30.26R
TWIN FALLS     CLEAR     60  34  37 S13       30.24R
$$

IDZ019>023-301200-
SOUTHEAST IDAHO


CITY           SKY/WX    TMP DP  RH WIND       PRES   REMARKS
IDAHO FALLS    CLEAR     43  40  89 N6        30.32S
POCATELLO      CLEAR     46  39  76 E5        30.31R
REXBURG        CLEAR     45  41  86 NE6       30.34R
$$

IDZ006-010-011-018-031-032-301200-
CENTRAL IDAHO MOUNTAINS


CITY           SKY/WX    TMP DP  RH WIND       PRES   REMARKS
MCCALL         CLEAR     49  38  65 CALM      30.31S
HAILEY         CLEAR     52  34  50 NW12      30.36F
STANLEY          N/A     35  30  82 S3        30.44S
SALMON         CLEAR     50  43  76 CALM      30.31S
CHALLIS        CLEAR     53  41  63 CALM      30.35R
$$

IDZ002-004-006-007-026-301200-
NORTHERN IDAHO


CITY           SKY/WX    TMP DP  RH WIND       PRES   REMARKS
LEWISTON       CLEAR     64  39  39 E3        30.13R
LOWELL           N/A     54  48  80 NW5       30.24S
COEUR D`ALENE  CLEAR     54  39  58 NE7       30.17R
MULLAN PASS    CLEAR     60  30  32 S3        30.37S
$$


USA.gov is the U.S. government's official web portal to all federal, state and local government web resources and services.